Location: Newark
(50.4348°N, 30.5552°E)
Time: 01:11:40
(UTC+00:00)

Tiros 1 despin weight - Pass Details

Date: 30 January 2020
Orbit: 594 x 642 km, 48.2° (Epoch: 27 February)

Event Time Altitude Azimuth Distance (km) Brightness Sun altitude
Rises 09:23:01 0° 255° (WSW) 2,856 ? 21.0°
Reaches altitude 10° 09:25:19 10° 252° (WSW) 1,960 ? 21.1°
Maximum altitude 09:29:46 63° 171° (S) 691 ? 21.2°
Drops below altitude 10° 09:34:17 10° 91° (E) 1,994 ? 21.3°
Sets 09:36:38 0° 89° (E) 2,909 ? 21.4°
